,,PressureMeas_1m,,PRMeasQMR101_1,,RHStat155_1m_1,,SRMeasQMS101R_1m,,TAStat155_1m_1,,GenWind_1,,GenWind_1,
2017-06-02, 07:00:06,VALID,918.896,VALID,0.0,VALID,90.152,VALID,107.504,VALID,19.455,VALID,112.0,VALID,1.161,
2017-06-02, 07:01:06,VALID,918.908,VALID,0.0,VALID,89.91,VALID,128.028,VALID,19.506,VALID,119.0,VALID,1.216,
2017-06-02, 07:02:06,VALID,918.931,VALID,0.0,VALID,89.738,VALID,137.181,VALID,19.568,VALID,120.0,VALID,1.235,
2017-06-02, 07:03:06,VALID,918.965,VALID,0.0,VALID,89.467,VALID,143.217,VALID,19.637,VALID,123.0,VALID,1.162,
2017-06-02, 07:04:06,VALID,918.998,VALID,0.0,VALID,89.476,VALID,145.963,VALID,19.711,VALID,131.0,VALID,0.845,
2017-06-02, 07:05:06,VALID,919.034,VALID,0.0,VALID,89.307,VALID,152.842,VALID,19.79,VALID,141.0,VALID,0.684,
2017-06-02, 07:06:06,VALID,919.048,VALID,0.0,VALID,89.203,VALID,155.588,VALID,19.862,VALID,138.0,VALID,0.794,
2017-06-02, 07:07:06,VALID,919.072,VALID,0.0,VALID,89.1,VALID,160.6,VALID,19.938,VALID,124.0,VALID,0.593,
2017-06-02, 07:08:06,VALID,919.09,VALID,0.0,VALID,88.901,VALID,166.907,VALID,20.034,VALID,113.0,VALID,0.776,
2017-06-02, 07:09:06,VALID,919.114,VALID,0.0,VALID,88.315,VALID,171.349,VALID,20.133,VALID,112.0,VALID,0.834,
2017-06-02, 07:10:06,VALID,919.146,VALID,0.0,VALID,87.423,VALID,176.111,VALID,20.222,VALID,126.0,VALID,0.771,
2017-06-02, 07:11:06,VALID,919.169,VALID,0.0,VALID,87.2,VALID,180.608,VALID,20.313,VALID,117.0,VALID,0.585,
2017-06-02, 07:12:06,VALID,919.194,VALID,0.0,VALID,87.001,VALID,184.061,VALID,20.414,VALID,141.0,VALID,0.473,
2017-06-02, 07:13:06,VALID,919.206,VALID,0.0,VALID,86.53,VALID,167.545,VALID,20.514,VALID,107.0,VALID,0.475,
2017-06-02, 07:14:06,VALID,919.231,VALID,0.0,VALID,86.664,VALID,194.987,VALID,20.647,VALID,62.0,VALID,0.451,
2017-06-02, 07:15:06,VALID,919.242,VALID,0.0,VALID,86.285,VALID,201.051,VALID,20.781,VALID,57.0,VALID,0.299,
2017-06-02, 07:16:06,VALID,919.27,VALID,0.0,VALID,85.964,VALID,210.284,VALID,20.926,VALID,63.0,VALID,0.124,
2017-06-02, 07:17:06,VALID,919.294,VALID,0.0,VALID,84.754,VALID,219.746,VALID,21.099,VALID,63.0,VALID,0.063,
2017-06-02, 07:18:06,VALID,919.318,VALID,0.0,VALID,84.034,VALID,229.466,VALID,21.275,VALID,74.0,VALID,0.349,
2017-06-02, 07:19:06,VALID,919.34,VALID,0.0,VALID,82.233,VALID,239.511,VALID,21.313,VALID,94.0,VALID,0.463,
2017-06-02, 07:20:06,VALID,919.374,VALID,0.0,VALID,83.199,VALID,249.116,VALID,21.285,VALID,95.0,VALID,0.278,
2017-06-02, 07:21:06,VALID,919.412,VALID,0.0,VALID,83.607,VALID,257.291,VALID,21.377,VALID,95.0,VALID,0.036,
2017-06-02, 07:22:06,VALID,919.419,VALID,0.0,VALID,83.346,VALID,263.682,VALID,21.572,VALID,106.0,VALID,0.211,
2017-06-02, 07:23:06,VALID,919.417,VALID,0.0,VALID,82.176,VALID,268.851,VALID,21.692,VALID,98.0,VALID,0.242,
2017-06-02, 07:24:06,VALID,919.431,VALID,0.0,VALID,82.491,VALID,273.252,VALID,21.806,VALID,99.0,VALID,0.379,
2017-06-02, 07:25:06,VALID,919.447,VALID,0.0,VALID,81.964,VALID,278.129,VALID,21.9,VALID,88.0,VALID,0.202,
2017-06-02, 07:26:06,VALID,919.463,VALID,0.0,VALID,81.429,VALID,283.595,VALID,22.077,VALID,65.0,VALID,0.298,
2017-06-02, 07:27:06,VALID,919.483,VALID,0.0,VALID,80.579,VALID,289.398,VALID,22.188,VALID,65.0,VALID,0.053,
2017-06-02, 07:28:06,VALID,919.495,VALID,0.0,VALID,80.872,VALID,295.709,VALID,22.355,VALID,18.0,VALID,0.626,
2017-06-02, 07:29:06,VALID,919.511,VALID,0.0,VALID,80.325,VALID,301.454,VALID,22.386,VALID,22.0,VALID,0.608,
2017-06-02, 07:30:06,VALID,919.532,VALID,0.0,VALID,80.124,VALID,306.02,VALID,22.328,VALID,22.0,VALID,0.413,
2017-06-02, 07:31:06,VALID,919.54,VALID,0.0,VALID,79.944,VALID,310.05,VALID,22.273,VALID,42.0,VALID,0.361,
2017-06-02, 07:32:06,VALID,919.536,VALID,0.0,VALID,80.439,VALID,313.852,VALID,22.358,VALID,60.0,VALID,0.607,
2017-06-02, 07:33:06,VALID,919.525,VALID,0.0,VALID,79.007,VALID,317.693,VALID,22.4,VALID,68.0,VALID,0.623,
2017-06-02, 07:34:06,VALID,919.523,VALID,0.0,VALID,79.812,VALID,321.217,VALID,22.345,VALID,69.0,VALID,0.784,
2017-06-02, 07:35:06,VALID,919.524,VALID,0.0,VALID,78.473,VALID,322.687,VALID,22.24,VALID,68.0,VALID,0.734,
2017-06-02, 07:36:06,VALID,919.55,VALID,0.0,VALID,79.784,VALID,317.953,VALID,22.174,VALID,22.0,VALID,0.551,
2017-06-02, 07:37:06,VALID,919.561,VALID,0.0,VALID,80.278,VALID,199.735,VALID,22.406,VALID,24.0,VALID,0.532,
2017-06-02, 07:38:06,VALID,919.567,VALID,0.0,VALID,80.155,VALID,112.505,VALID,22.586,VALID,36.0,VALID,0.311,
2017-06-02, 07:39:06,VALID,919.546,VALID,0.0,VALID,79.752,VALID,109.249,VALID,22.614,VALID,26.0,VALID,0.585,
2017-06-02, 07:40:06,VALID,919.529,VALID,0.0,VALID,80.734,VALID,124.277,VALID,22.474,VALID,31.0,VALID,0.617,
2017-06-02, 07:41:06,VALID,919.544,VALID,0.0,VALID,80.967,VALID,140.925,VALID,22.383,VALID,11.0,VALID,0.444,
2017-06-02, 07:42:06,VALID,919.533,VALID,0.0,VALID,81.265,VALID,136.793,VALID,22.317,VALID,21.0,VALID,0.459,
2017-06-02, 07:43:06,VALID,919.541,VALID,0.0,VALID,79.705,VALID,197.772,VALID,22.272,VALID,51.0,VALID,0.638,
2017-06-02, 07:44:06,VALID,919.544,VALID,0.0,VALID,79.767,VALID,218.258,VALID,22.126,VALID,44.0,VALID,0.753,
2017-06-02, 07:45:06,VALID,919.548,VALID,0.0,VALID,81.564,VALID,292.782,VALID,22.108,VALID,23.0,VALID,0.47,
2017-06-02, 07:46:06,VALID,919.572,VALID,0.0,VALID,80.318,VALID,301.245,VALID,22.207,VALID,41.0,VALID,0.683,
2017-06-02, 07:47:06,VALID,919.569,VALID,0.0,VALID,79.494,VALID,273.971,VALID,22.219,VALID,46.0,VALID,0.734,
2017-06-02, 07:48:06,VALID,919.587,VALID,0.0,VALID,79.346,VALID,309.786,VALID,22.328,VALID,38.0,VALID,0.761,
2017-06-02, 07:49:06,VALID,919.585,VALID,0.0,VALID,78.69,VALID,300.163,VALID,22.476,VALID,26.0,VALID,0.618,
2017-06-02, 07:50:06,VALID,919.572,VALID,0.0,VALID,78.168,VALID,272.125,VALID,22.513,VALID,40.0,VALID,0.647,
2017-06-02, 07:51:06,VALID,919.56,VALID,0.0,VALID,78.263,VALID,305.76,VALID,22.613,VALID,23.0,VALID,0.617,
2017-06-02, 07:52:06,VALID,919.561,VALID,0.0,VALID,77.783,VALID,146.082,VALID,22.758,VALID,48.0,VALID,0.559,
2017-06-02, 07:53:06,VALID,919.57,VALID,0.0,VALID,77.933,VALID,156.176,VALID,22.905,VALID,23.0,VALID,0.539,
2017-06-02, 07:54:06,VALID,919.586,VALID,0.0,VALID,77.113,VALID,328.482,VALID,22.953,VALID,15.0,VALID,0.666,
2017-06-02, 07:55:06,VALID,919.61,VALID,0.0,VALID,76.584,VALID,341.247,VALID,22.965,VALID,23.0,VALID,0.454,
2017-06-02, 07:56:06,VALID,919.626,VALID,0.0,VALID,77.073,VALID,341.681,VALID,23.089,VALID,15.0,VALID,0.487,
2017-06-02, 07:57:06,VALID,919.631,VALID,0.0,VALID,77.133,VALID,333.741,VALID,23.248,VALID,360.0,VALID,0.512,
2017-06-02, 07:58:06,VALID,919.639,VALID,0.0,VALID,75.759,VALID,348.974,VALID,23.382,VALID,13.0,VALID,0.752,
2017-06-02, 07:59:06,VALID,919.641,VALID,0.0,VALID,75.808,VALID,347.238,VALID,23.313,VALID,28.0,VALID,0.523,
2017-06-02, 08:00:06,VALID,919.655,VALID,0.0,VALID,76.877,VALID,348.172,VALID,23.337,VALID,14.0,VALID,0.891,
2017-06-02, 08:01:06,VALID,919.666,VALID,0.0,VALID,75.653,VALID,350.671,VALID,23.309,VALID,358.0,VALID,0.665,
2017-06-02, 08:02:06,VALID,919.674,VALID,0.0,VALID,75.783,VALID,354.023,VALID,23.324,VALID,352.0,VALID,0.471,
2017-06-02, 08:03:06,VALID,919.687,VALID,0.0,VALID,73.566,VALID,358.026,VALID,23.349,VALID,10.0,VALID,0.671,
2017-06-02, 08:04:06,VALID,919.693,VALID,0.0,VALID,74.818,VALID,362.41,VALID,23.266,VALID,36.0,VALID,0.854,
2017-06-02, 08:05:06,VALID,919.729,VALID,0.0,VALID,75.099,VALID,367.222,VALID,23.376,VALID,52.0,VALID,0.552,
2017-06-02, 08:06:06,VALID,919.731,VALID,0.0,VALID,74.855,VALID,371.258,VALID,23.625,VALID,10.0,VALID,0.587,
2017-06-02, 08:07:06,VALID,919.737,VALID,0.0,VALID,74.567,VALID,375.095,VALID,23.808,VALID,30.0,VALID,0.354,
2017-06-02, 08:08:06,VALID,919.746,VALID,0.0,VALID,73.322,VALID,378.765,VALID,24.025,VALID,346.0,VALID,0.046,
2017-06-02, 08:09:06,VALID,919.76,VALID,0.0,VALID,72.384,VALID,383.161,VALID,24.039,VALID,318.0,VALID,0.097,
2017-06-02, 08:10:06,VALID,919.77,VALID,0.0,VALID,71.569,VALID,387.691,VALID,23.997,VALID,344.0,VALID,0.371,
2017-06-02, 08:11:06,VALID,919.787,VALID,0.0,VALID,72.05,VALID,392.613,VALID,23.894,VALID,299.0,VALID,0.523,
2017-06-02, 08:12:06,VALID,919.785,VALID,0.0,VALID,73.208,VALID,397.915,VALID,23.497,VALID,282.0,VALID,0.68,
2017-06-02, 08:13:06,VALID,919.802,VALID,0.0,VALID,74.204,VALID,402.836,VALID,23.149,VALID,286.0,VALID,0.344,
2017-06-02, 08:14:06,VALID,919.798,VALID,0.0,VALID,75.51,VALID,407.786,VALID,23.041,VALID,327.0,VALID,0.722,
2017-06-02, 08:15:06,VALID,919.814,VALID,0.0,VALID,74.686,VALID,413.345,VALID,23.105,VALID,5.0,VALID,0.636,
2017-06-02, 08:16:06,VALID,919.807,VALID,0.0,VALID,74.692,VALID,419.201,VALID,23.224,VALID,344.0,VALID,0.754,
2017-06-02, 08:17:06,VALID,919.79,VALID,0.0,VALID,75.382,VALID,424.627,VALID,23.429,VALID,32.0,VALID,1.004,
2017-06-02, 08:18:06,VALID,919.779,VALID,0.0,VALID,73.939,VALID,429.883,VALID,23.576,VALID,282.0,VALID,0.422,
2017-06-02, 08:19:06,VALID,919.776,VALID,0.0,VALID,73.925,VALID,436.109,VALID,23.476,VALID,354.0,VALID,0.388,
2017-06-02, 08:20:06,VALID,919.805,VALID,0.0,VALID,73.669,VALID,443.505,VALID,23.604,VALID,352.0,VALID,0.849,
2017-06-02, 08:21:06,VALID,919.813,VALID,0.0,VALID,71.941,VALID,451.344,VALID,23.724,VALID,343.0,VALID,1.337,
2017-06-02, 08:22:06,VALID,919.818,VALID,0.0,VALID,72.406,VALID,441.978,VALID,23.664,VALID,11.0,VALID,1.152,
2017-06-02, 08:23:06,VALID,919.815,VALID,0.0,VALID,74.203,VALID,437.252,VALID,23.641,VALID,26.0,VALID,0.683,
2017-06-02, 08:24:06,VALID,919.775,VALID,0.0,VALID,73.258,VALID,487.633,VALID,23.744,VALID,1.0,VALID,1.292,
2017-06-02, 08:25:06,VALID,919.772,VALID,0.0,VALID,72.342,VALID,499.834,VALID,23.741,VALID,349.0,VALID,1.566,
2017-06-02, 08:26:06,VALID,919.781,VALID,0.0,VALID,72.688,VALID,507.917,VALID,23.787,VALID,18.0,VALID,1.161,
2017-06-02, 08:27:06,VALID,919.794,VALID,0.0,VALID,72.808,VALID,434.09,VALID,23.927,VALID,350.0,VALID,1.087,
2017-06-02, 08:28:06,VALID,919.81,VALID,0.0,VALID,72.117,VALID,430.331,VALID,23.924,VALID,358.0,VALID,1.447,
2017-06-02, 08:29:06,VALID,919.814,VALID,0.0,VALID,73.856,VALID,480.664,VALID,23.829,VALID,300.0,VALID,0.636,
2017-06-02, 08:30:06,VALID,919.809,VALID,0.0,VALID,73.79,VALID,445.572,VALID,23.612,VALID,294.0,VALID,0.945,
2017-06-02, 08:31:06,VALID,919.794,VALID,0.0,VALID,75.3,VALID,531.045,VALID,23.396,VALID,336.0,VALID,0.378,
2017-06-02, 08:32:06,VALID,919.798,VALID,0.0,VALID,75.649,VALID,608.373,VALID,23.487,VALID,351.0,VALID,0.386,
2017-06-02, 08:33:06,VALID,919.818,VALID,0.0,VALID,74.215,VALID,556.875,VALID,23.679,VALID,323.0,VALID,0.681,
2017-06-02, 08:34:06,VALID,919.846,VALID,0.0,VALID,73.647,VALID,397.042,VALID,23.888,VALID,11.0,VALID,1.183,
2017-06-02, 08:35:06,VALID,919.878,VALID,0.0,VALID,73.331,VALID,367.522,VALID,23.942,VALID,349.0,VALID,1.045,
2017-06-02, 08:36:06,VALID,919.885,VALID,0.0,VALID,72.107,VALID,370.655,VALID,23.955,VALID,6.0,VALID,1.58,
2017-06-02, 08:37:06,VALID,919.905,VALID,0.0,VALID,73.841,VALID,353.918,VALID,23.845,VALID,312.0,VALID,0.646,
2017-06-02, 08:38:06,VALID,919.912,VALID,0.0,VALID,73.126,VALID,383.106,VALID,23.811,VALID,313.0,VALID,0.164,
2017-06-02, 08:39:06,VALID,919.926,VALID,0.0,VALID,72.981,VALID,336.245,VALID,23.761,VALID,298.0,VALID,0.51,
2017-06-02, 08:40:06,VALID,919.904,VALID,0.0,VALID,74.313,VALID,317.784,VALID,23.574,VALID,310.0,VALID,0.478,
2017-06-02, 08:41:06,VALID,919.92,VALID,0.0,VALID,73.238,VALID,374.33,VALID,23.601,VALID,343.0,VALID,0.636,
2017-06-02, 08:42:06,VALID,919.934,VALID,0.0,VALID,73.83,VALID,416.979,VALID,23.78,VALID,360.0,VALID,0.936,
2017-06-02, 08:43:06,VALID,919.946,VALID,0.0,VALID,72.625,VALID,482.032,VALID,23.954,VALID,353.0,VALID,0.686,
2017-06-02, 08:44:06,VALID,919.956,VALID,0.0,VALID,73.132,VALID,406.607,VALID,24.162,VALID,4.0,VALID,0.673,
2017-06-02, 08:45:06,VALID,919.942,VALID,0.0,VALID,71.626,VALID,326.952,VALID,24.329,VALID,359.0,VALID,0.536,
2017-06-02, 08:46:06,VALID,919.923,VALID,0.0,VALID,71.336,VALID,316.221,VALID,24.322,VALID,11.0,VALID,1.695,
2017-06-02, 08:47:06,VALID,919.942,VALID,0.0,VALID,72.691,VALID,322.549,VALID,24.051,VALID,19.0,VALID,1.282,
2017-06-02, 08:48:06,VALID,919.943,VALID,0.0,VALID,73.708,VALID,300.505,VALID,23.997,VALID,9.0,VALID,0.867,
2017-06-02, 08:49:06,VALID,919.943,VALID,0.0,VALID,72.58,VALID,335.422,VALID,24.011,VALID,328.0,VALID,0.543,
2017-06-02, 08:50:06,VALID,919.932,VALID,0.0,VALID,70.804,VALID,498.496,VALID,23.937,VALID,344.0,VALID,1.126,
2017-06-02, 08:51:06,VALID,919.916,VALID,0.0,VALID,71.4,VALID,554.073,VALID,23.923,VALID,16.0,VALID,1.102,
2017-06-02, 08:52:06,VALID,919.928,VALID,0.0,VALID,71.819,VALID,389.05,VALID,24.088,VALID,311.0,VALID,0.809,
2017-06-02, 08:53:06,VALID,919.897,VALID,0.0,VALID,71.397,VALID,311.323,VALID,24.05,VALID,286.0,VALID,0.422,
2017-06-02, 08:54:06,VALID,919.891,VALID,0.0,VALID,73.738,VALID,494.232,VALID,24.091,VALID,334.0,VALID,0.229,
2017-06-02, 08:55:06,VALID,919.867,VALID,0.0,VALID,73.903,VALID,560.659,VALID,24.347,VALID,3.0,VALID,0.82,
2017-06-02, 08:56:06,VALID,919.853,VALID,0.0,VALID,70.333,VALID,305.512,VALID,24.44,VALID,356.0,VALID,1.13,
2017-06-02, 08:57:06,VALID,919.837,VALID,0.0,VALID,71.748,VALID,565.309,VALID,24.4,VALID,7.0,VALID,1.009,
2017-06-02, 08:58:06,VALID,919.831,VALID,0.0,VALID,71.457,VALID,553.922,VALID,24.519,VALID,357.0,VALID,0.648,
2017-06-02, 08:59:06,VALID,919.846,VALID,0.0,VALID,70.952,VALID,532.028,VALID,24.749,VALID,12.0,VALID,0.993,
2017-06-02, 09:00:06,VALID,919.862,VALID,0.0,VALID,69.439,VALID,586.058,VALID,25.037,VALID,12.0,VALID,0.771,
2017-06-02, 09:01:06,VALID,919.89,VALID,0.0,VALID,70.038,VALID,590.63,VALID,25.23,VALID,344.0,VALID,0.65,
2017-06-02, 09:02:06,VALID,919.886,VALID,0.0,VALID,68.224,VALID,588.209,VALID,25.273,VALID,298.0,VALID,0.319,
2017-06-02, 09:03:06,VALID,919.885,VALID,0.0,VALID,67.134,VALID,589.193,VALID,25.23,VALID,294.0,VALID,0.42,
2017-06-02, 09:04:06,VALID,919.854,VALID,0.0,VALID,67.832,VALID,588.623,VALID,25.2,VALID,342.0,VALID,0.243,
2017-06-02, 09:05:06,VALID,919.844,VALID,0.0,VALID,65.183,VALID,588.827,VALID,25.295,VALID,337.0,VALID,0.375,
2017-06-02, 09:06:06,VALID,919.875,VALID,0.0,VALID,66.213,VALID,588.92,VALID,25.335,VALID,350.0,VALID,0.625,
2017-06-02, 09:07:06,VALID,919.9,VALID,0.0,VALID,65.696,VALID,589.843,VALID,25.246,VALID,329.0,VALID,0.861,
2017-06-02, 09:08:06,VALID,919.907,VALID,0.0,VALID,67.715,VALID,590.44,VALID,25.153,VALID,5.0,VALID,0.524,
2017-06-02, 09:09:06,VALID,919.917,VALID,0.0,VALID,66.621,VALID,591.939,VALID,25.234,VALID,264.0,VALID,0.348,
